Weather History for CWSP - November, 2013

Change the Weather History Date:

Tuesday, November 26, 2013

  Actual Average Record
Temperature  
Mean Temperature 42 °F -  
Max Temperature 45 °F - - ()
Min Temperature 38 °F - - ()
Degree Days  
Heating Degree Days 24    
Moisture  
Dew Point 38 °F    
Average Humidity 81    
Maximum Humidity 88    
Minimum Humidity 72    
Precipitation  
Precipitation 0.00 in - - ()
Sea Level Pressure  
Sea Level Pressure 30.16 in    
Wind  
Wind Speed 5 mph ()    
Max Wind Speed 21 mph    
Max Gust Speed -    
T = Trace of Precipitation, MM = Missing Value Source: Averaged Metar Reports

Daily Weather History Graph

Daily Weather History Graph

Search for Another Location

Airport or City:

Trip Planner

Search our weather history database for the weather conditions in past years. The results will help you decide how hot, cold, wet, or windy it might be!

Date:

Astronomy

Nov. 26, 2013 Rise Set
Actual Time 7:39 AM PST 4:26 PM PST
Civil Twilight 7:04 AM PST 5:01 PM PST
Nautical Twilight 6:25 AM PST 5:40 PM PST
Astronomical Twilight 5:47 AM PST 6:17 PM PST
Moon 12:18 AM PST (11/26) 1:03 PM PST (11/26)
Length of Visible Light 9h 57m
Length of Day
8h 46m
Last Quarter, 40% of the Moon is Illuminated
Nov 26
Last Quarter
Dec 2
New
Dec 9
First Quarter
Dec 17
Full
Dec 25
Last Quarter

Hourly Weather History & Observations

Time (PST) Temp. Windchill Dew Point Humidity Pressure Visibility Wind Dir Wind Speed Gust Speed Precip Events Conditions
12:00 AM 42.8 °F 39.3 °F 39.2 °F 87% 30.26 in - East 5.8 mph - N/A   Unknown
1:00 AM 42.1 °F 37.7 °F 36.9 °F 82% 30.24 in - East 6.9 mph - N/A   Unknown
2:00 AM 41.9 °F 37.5 °F 37.8 °F 85% 30.23 in - East 6.9 mph - N/A   Unknown
3:00 AM 41.9 °F 40.0 °F 37.6 °F 85% 30.22 in - East 3.5 mph - N/A   Unknown
4:00 AM 40 °F - 35 °F 75% 30.21 in - NNW 1.2 mph - -  
4:00 AM 39.6 °F - 34.9 °F 83% 30.21 in - NNW 1.2 mph - N/A   Unknown
5:00 AM 40.1 °F 36.9 °F 33.1 °F 76% 30.19 in - East 4.6 mph - N/A   Unknown
6:00 AM 41.2 °F 37.3 °F 35.2 °F 79% 30.19 in - WNW 5.8 mph - N/A   Unknown
7:00 AM 41.5 °F - 35.1 °F 78% 30.19 in - East 1.2 mph - N/A   Unknown
8:00 AM 41.2 °F 36.6 °F 33.6 °F 74% 30.19 in - East 6.9 mph - N/A   Unknown
9:00 AM 41.9 °F 37.5 °F 35.1 °F 77% 30.17 in - East 6.9 mph - N/A   Unknown
10:00 AM 42 °F - 36 °F 72% 30.16 in - East 8.1 mph - -  
10:00 AM 42.4 °F 37.5 °F 36.0 °F 78% 30.16 in - East 8.1 mph - N/A   Unknown
11:00 AM 44.1 °F 40.8 °F 38.8 °F 82% 30.17 in - East 5.8 mph - N/A   Unknown
12:00 PM 43.0 °F 34.2 °F 39.6 °F 88% 30.14 in - ESE 20.7 mph - N/A   Unknown
1:00 PM 43.2 °F 35.3 °F 39.6 °F 87% 30.13 in - ESE 17.3 mph - N/A   Unknown
2:00 PM 43.0 °F 36.4 °F 39.6 °F 88% 30.12 in - SE 12.7 mph - N/A   Unknown
3:00 PM 43.7 °F 36.9 °F 39.6 °F 85% 30.12 in - ESE 13.8 mph - N/A   Unknown
4:00 PM 44 °F - 40 °F 79% 30.12 in - East 5.8 mph - -  
4:00 PM 44.2 °F 41.0 °F 39.6 °F 84% 30.12 in - East 5.8 mph - N/A   Unknown
5:00 PM 44.2 °F - 39.9 °F 85% 30.12 in - East 2.3 mph - N/A   Unknown
6:00 PM 44.4 °F - 39.2 °F 82% 30.11 in - Calm Calm - N/A   Unknown
7:00 PM 45.0 °F 43.5 °F 37.8 °F 76% 30.10 in - East 3.5 mph - N/A   Unknown
8:00 PM 44.6 °F - 38.7 °F 80% 30.11 in - East 1.2 mph - N/A   Unknown
9:00 PM 44.8 °F - 38.8 °F 80% 30.10 in - SSW 2.3 mph - N/A   Unknown
10:00 PM 44 °F - 39 °F 78% 30.10 in - East 3.5 mph - -  
10:00 PM 44.4 °F 42.9 °F 39.4 °F 82% 30.10 in - East 3.5 mph - N/A   Unknown
11:00 PM 44.1 °F - 37.0 °F 76% 30.09 in - SE 1.2 mph - N/A   Unknown